Location: Barrio de Buenos Aires
(28.4500°N, 16.2667°W)
Time: 15:36:29
(UTC+00:00)

CZ-3C R/B - Pass Details

Date: 24 January 2020
Orbit: 268 x 33619 km, 20.5° (Epoch: 23 February)

Event Time Altitude Azimuth Distance (km) Brightness Sun altitude
Rises 11:18:15 0° 234° (SW) 17,238 8.4 34.3°
Reaches altitude 10° 11:38:38 10° 231° (SW) 20,430 8.9 36.7°
Drops below altitude 10° 17:20:50 10° 263° (W) 33,387 11.2 14.3°
Maximum altitude 20:01:04 50° 206° (SSW) 2,333 4.1 -18.3°
Enters shadow 20:06:13 14° 132° (SE) 2,398 3.7 -19.5°
